RH
73 76 78 78 78 79 79 65 52 55 65 75 79 79 80 77 77 78 65 51 50 45 33 25 23 29 37 46 53 65 74 60 48 63 78 80 83 83 77 74 74 76 79 78 76 74 75 78 77 73 72 73 77 75 68 69 73 71 74 76 73 77 78 74 76 68 56 55 58 59 62 62 62 63 65 67 66 68 70 71 72 73 70 67 63
69 74 77 79 76 75 80 72 58 58 67 73 76 76 72 66 65 65 54 42 36 28 22 21 23 22 21 23 27 42 56 47 34 44 60 72 82 86 83 80 78 77 79 78 77 77 76 76 76 77 76 76 76 72 68 70 71 68 71 73 72 76 77 71 68 67 65 61 56 57 60 60 61 62 61 64 67 67 70 74 77 77 78 77 75
63 71 78 81 78 76 78 74 65 62 67 73 74 68 61 56 54 51 44 35 25 20 19 20 26 27 21 18 20 29 40 40 36 33 37 51 66 76 83 85 86 85 81 79 79 78 77 77 77 77 74 74 74 71 70 72 71 69 68 69 71 73 75 77 74 70 71 66 58 58 56 48 51 60 63 64 66 67 69 72 75 78 78 77 78
55 65 77 84 82 79 75 73 71 64 60 64 63 59 54 49 45 43 37 27 19 19 19 18 23 29 27 21 19 24 31 35 37 34 32 36 46 62 74 74 78 80 70 70 78 79 79 79 77 75 72 73 74 72 71 72 73 74 71 70 75 77 77 82 83 79 76 70 66 65 55 45 52 61 64 68 70 71 69 67 70 76 77 77 79
49 57 73 81 83 82 77 77 75 61 56 64 61 53 50 46 43 40 31 22 17 19 21 19 21 27 32 29 22 22 26 30 34 34 36 41 40 51 72 74 72 66 50 56 77 80 79 79 75 73 73 73 73 69 66 65 69 76 76 75 79 78 73 72 74 76 76 76 79 74 58 57 67 65 59 64 72 74 71 68 68 73 77 78 75
46 50 67 77 79 80 80 82 72 50 53 74 68 53 49 47 42 33 26 22 17 18 22 22 22 26 34 36 30 25 24 29 36 33 41 61 54 46 67 81 78 66 47 54 80 82 75 77 76 75 75 73 71 68 63 61 66 73 76 77 80 76 69 66 69 73 73 72 72 69 65 70 71 60 53 60 71 76 75 72 71 73 75 76 73
45 45 58 69 72 74 77 78 64 43 49 68 64 53 51 44 32 23 22 23 20 19 23 24 24 25 29 33 32 30 26 28 38 37 42 64 61 43 56 77 83 76 57 58 79 80 70 72 75 76 76 74 73 69 64 64 68 70 72 75 79 76 72 72 74 75 73 67 60 63 73 77 65 50 51 62 72 77 74 71 71 71 69 69 72
46 46 52 58 63 68 75 78 68 52 52 58 52 50 50 40 26 18 20 24 20 19 23 25 26 27 29 33 33 34 31 28 39 46 41 46 47 41 50 63 69 69 58 58 72 76 73 74 74 72 71 70 70 68 66 69 69 67 70 75 78 77 75 74 72 70 69 66 61 62 71 78 71 59 56 65 74 76 72 70 70 71 70 71 74
48 51 52 53 57 65 75 84 81 66 56 51 42 41 44 38 27 19 21 27 24 20 21 24 28 29 30 33 36 41 38 30 35 46 43 39 41 44 47 49 51 53 49 52 64 72 77 79 77 76 73 68 68 66 66 69 68 67 70 74 76 75 73 71 68 64 63 63 62 63 67 73 77 72 67 70 75 74 73 73 73 74 76 77 74
55 57 53 49 51 63 78 87 87 75 63 52 42 39 39 35 28 21 23 33 35 26 19 23 27 29 29 30 33 40 39 32 32 39 43 46 47 48 47 44 47 52 49 52 62 69 75 80 84 82 74 68 69 67 64 65 64 65 69 73 74 72 71 70 68 62 61 60 61 64 70 74 75 74 74 74 72 70 72 75 77 77 75 76 72
61 62 60 57 60 73 85 87 85 80 71 63 56 51 48 44 38 31 29 38 40 28 20 24 27 27 28 28 29 34 38 39 40 36 40 49 50 50 52 50 50 55 52 52 60 67 72 77 77 72 66 66 70 71 68 66 62 61 65 71 75 73 70 69 66 61 60 62 63 66 72 74 74 75 76 75 73 74 77 77 74 72 72 76 74
64 63 62 64 71 81 87 87 84 80 74 71 68 66 65 63 58 52 48 47 41 28 21 24 25 25 27 26 29 36 42 46 48 42 41 49 50 49 56 59 58 58 55 54 60 66 69 70 68 66 67 67 70 73 73 71 70 70 70 72 73 72 70 67 64 61 61 63 66 70 71 71 76 79 80 80 79 78 77 72 64 64 69 71 67
71 74 71 71 76 82 85 85 81 75 70 71 74 76 77 75 70 67 62 53 41 31 26 26 26 25 25 28 35 46 52 53 53 47 44 51 53 51 57 62 61 60 58 58 64 67 67 66 64 64 67 67 69 73 74 74 75 73 71 70 69 67 67 67 66 66 68 71 73 73 72 73 77 79 79 82 81 77 77 73 61 57 56 52 48
79 83 81 78 78 80 80 77 73 71 72 76 81 84 83 81 78 74 68 57 46 38 31 28 26 25 27 34 42 53 63 66 62 54 47 47 51 55 60 61 59 60 62 66 70 73 72 70 64 65 73 75 73 74 74 74 72 69 66 67 66 62 60 65 71 73 75 79 80 78 79 81 82 82 79 79 78 78 79 70 54 45 42 40 43
85 83 80 79 80 79 76 73 72 72 76 80 84 87 87 86 85 81 72 58 46 38 32 30 31 32 37 42 48 58 70 72 67 58 47 43 50 59 66 65 61 64 71 73 75 77 78 78 77 79 86 85 77 72 73 71 69 68 69 69 65 59 55 61 73 80 79 79 80 81 84 86 88 89 85 81 78 75 68 58 53 56 61 64 67
85 84 81 79 79 78 77 77 76 74 77 82 86 88 89 89 87 85 77 63 51 44 40 39 42 42 42 44 50 63 73 73 64 56 51 51 56 65 71 69 65 70 76 74 74 78 81 81 79 76 78 81 78 73 72 69 68 70 71 69 66 64 64 70 78 79 77 77 79 82 83 84 84 82 75 70 67 62 57 59 69 82 87 85 86
84 86 85 82 83 83 82 80 79 80 84 86 86 87 86 86 86 84 78 72 67 62 57 56 53 48 47 51 56 64 76 77 67 60 63 63 60 67 76 74 71 76 78 69 66 73 76 70 60 56 62 72 73 69 69 68 66 64 62 62 66 71 77 81 81 79 78 79 79 78 77 78 76 68 59 59 62 63 68 74 78 85 89 88 87
88 94 94 90 88 82 74 76 82 86 85 81 79 81 81 83 87 84 79 78 77 73 72 70 63 57 62 72 73 73 80 81 71 67 73 70 62 67 75 72 71 74 71 62 60 66 67 58 49 52 62 68 68 69 70 65 59 56 57 64 73 78 81 81 79 77 78 79 80 81 78 72 63 52 52 64 72 76 81 81 76 79 87 88 85
84 91 88 83 83 72 64 74 83 80 75 72 74 77 78 85 91 87 83 84 82 78 77 76 72 71 76 84 86 85 86 83 76 75 79 74 64 65 71 70 69 69 65 63 63 62 60 56 55 62 69 69 68 68 63 55 52 54 62 74 80 79 76 76 74 73 74 76 77 74 67 60 55 56 67 79 80 76 75 74 73 77 80 77 73
56 61 62 69 77 66 61 72 74 67 67 73 77 79 81 88 93 87 83 83 82 80 82 84 83 82 83 86 89 88 86 84 83 82 80 75 69 68 67 64 64 70 73 69 59 54 56 57 58 66 71 68 63 59 51 48 52 58 68 80 84 79 74 73 73 72 69 64 59 55 58 66 75 81 84 81 74 69 67 66 66 69 68 66 65
30 31 33 41 47 48 60 76 74 67 72 80 85 84 84 88 85 79 81 82 79 82 87 86 83 80 79 82 84 85 84 83 84 81 75 71 69 62 55 56 67 79 78 64 53 58 67 68 64 65 66 59 52 49 48 50 56 63 71 78 80 76 72 72 71 65 56 54 58 64 73 82 86 83 76 70 66 64 61 62 64 67 66 64 64
25 28 29 31 36 51 73 83 78 77 83 90 91 85 85 85 70 61 73 80 77 80 82 75 72 73 75 75 76 80 81 77 77 78 72 65 60 51 49 63 78 79 67 58 60 70 82 82 71 61 56 51 48 49 52 56 63 69 73 75 73 72 70 66 60 51 50 64 78 82 84 85 82 77 71 66 64 65 67 70 70 66 63 61 63
27 30 34 39 55 78 89 84 83 90 94 96 93 86 89 87 63 53 70 77 72 77 77 70 67 68 71 74 74 75 75 71 70 71 62 53 49 48 53 65 70 64 58 64 75 84 91 88 73 59 54 51 51 54 57 62 66 68 70 71 67 64 59 51 47 52 64 79 86 85 85 85 81 74 70 68 71 74 72 64 54 51 57 64 70
29 32 35 46 71 94 97 91 94 99 98 98 97 91 88 78 57 53 67 70 68 77 80 75 71 67 66 71 72 73 76 72 64 56 48 44 49 56 61 63 63 63 67 75 81 84 83 73 60 54 55 55 57 61 63 64 66 67 67 64 57 50 46 46 56 70 76 77 80 80 80 79 75 72 73 76 76 70 59 48 47 59 71 75 76
30 31 35 53 79 93 95 96 99 100 99 99 95 87 78 67 57 56 61 65 72 79 80 78 75 70 66 66 68 73 77 72 60 51 47 50 55 60 63 64 66 70 76 78 76 69 63 58 54 55 57 58 61 64 64 64 66 65 58 51 46 47 53 62 74 81 77 75 78 78 74 73 73 73 74 73 67 60 57 60 67 72 73 72 74
33 42 55 71 86 92 95 98 99 99 99 97 92 85 78 71 64 57 57 65 74 79 79 75 71 68 65 61 62 68 74 74 69 61 55 53 57 61 65 68 71 74 74 70 63 56 52 53 57 59 60 62 65 67 67 68 67 63 57 54 56 63 72 79 82 81 79 78 76 72 70 72 73 72 72 72 67 64 66 69 68 65 67 72 76
48 72 87 91 93 97 99 98 97 98 99 95 92 89 83 75 68 63 64 69 74 76 74 67 61 61 60 58 58 64 74 80 80 73 63 56 59 64 66 67 70 70 66 58 53 53 54 55 57 58 59 63 65 65 65 65 64 63 64 66 68 69 73 76 77 76 76 75 75 77 77 76 76 77 74 69 63 61 62 61 60 63 70 74 75
75 88 92 91 93 97 98 96 96 96 92 84 79 79 77 72 70 72 71 69 69 71 68 61 59 59 58 57 59 66 76 83 85 83 72 58 57 62 65 67 66 63 63 63 59 53 51 52 54 57 61 67 70 69 69 69 68 68 68 68 68 67 66 68 72 73 74 77 80 80 76 73 74 72 64 58 56 58 59 59 60 67 73 74 74
91 90 90 90 93 97 98 95 91 88 83 76 72 73 74 71 71 74 74 70 70 72 70 67 66 62 59 60 62 67 76 82 83 81 68 54 53 58 61 64 63 61 68 75 71 63 58 58 63 71 77 81 82 79 77 75 71 68 66 64 64 64 63 64 65 67 71 73 70 66 64 67 67 61 55 54 55 56 56 56 58 66 74 76 76
87 87 88 87 89 93 94 90 86 82 79 76 73 73 75 76 75 77 77 72 70 70 70 72 71 67 64 64 63 65 70 71 68 65 59 56 58 58 58 64 68 69 69 65 62 67 73 74 75 79 81 78 73 67 64 62 60 59 60 60 59 59 59 60 61 64 66 62 56 55 58 59 56 53 53 53 52 52 52 52 55 63 70 73 74
84 88 89 87 90 92 88 85 85 81 77 79 78 75 77 79 78 76 74 72 72 71 69 69 70 70 67 63 61 59 59 60 62 64 64 66 66 64 64 68 68 67 62 54 52 63 73 74 73 74 72 67 60 55 53 54 55 56 55 54 54 54 54 56 61 63 58 51 48 51 53 51 49 50 50 49 49 51 51 50 52 58 63 67 72
88 89 91 91 92 89 84 84 84 79 79 84 83 78 78 79 77 74 70 69 70 68 64 64 69 71 65 59 58 57 55 59 65 66 65 66 65 66 68 65 59 57 56 53 57 67 73 74 73 71 66 60 56 55 55 55 56 57 52 48 50 55 57 59 61 55 46 45 50 52 49 47 47 46 45 45 47 49 49 50 51 53 56 61 67
84 85 89 89 86 83 80 82 83 81 83 87 86 82 81 79 73 67 60 56 56 56 53 55 61 63 59 54 53 54 55 57 60 60 60 60 60 61 62 58 55 57 58 57 62 71 77 76 71 65 59 56 55 58 59 58 58 57 52 50 55 59 59 60 58 50 46 51 53 49 44 44 44 42 43 46 47 46 47 48 50 50 51 56 63
77 81 85 82 80 81 81 82 83 83 84 86 85 81 78 72 65 58 51 47 47 47 46 47 50 50 50 47 46 47 50 54 57 58 58 59 60 62 61 58 58 62 63 62 64 68 71 73 70 63 59 58 60 61 61 60 59 55 52 55 61 62 60 57 52 48 48 50 46 41 42 44 43 43 46 46 45 45 46 47 49 47 47 53 61
75 79 81 78 78 81 80 79 80 81 82 82 79 75 71 67 63 59 53 50 49 47 45 44 44 44 44 45 46 48 52 56 58 59 59 61 63 63 61 62 64 64 63 64 65 65 66 69 69 66 63 65 67 68 67 66 62 56 52 55 60 62 58 48 42 44 49 47 41 40 44 46 44 46 48 45 44 46 46 46 46 44 45 51 58
81 83 83 80 77 75 72 71 72 76 80 77 70 67 66 63 62 64 62 60 62 60 50 44 44 45 48 50 51 53 55 56 57 61 64 65 66 66 66 68 71 68 66 69 73 74 72 71 70 69 70 72 72 72 71 67 61 56 56 59 64 65 57 46 45 49 45 39 40 46 49 48 47 46 45 43 44 46 46 44 44 45 47 50 53
77 77 77 76 71 69 71 71 69 72 74 70 64 63 62 61 62 61 58 61 68 67 57 50 50 51 51 52 51 51 52 54 57 61 65 66 68 71 72 74 77 77 76 77 78 76 73 72 72 73 73 73 72 71 68 63 57 56 58 62 68 69 59 47 40 32 20 24 43 54 51 46 46 45 44 44 45 46 44 43 45 48 49 48 49
68 69 72 74 73 74 73 64 57 57 59 59 61 61 60 62 62 57 55 63 71 67 57 52 53 52 50 51 52 52 54 57 59 62 65 68 71 72 71 72 76 77 75 75 76 74 73 74 76 76 75 73 71 68 64 61 59 57 57 59 64 63 55 43 34 28 28 38 50 52 46 44 44 44 43 43 44 44 44 45 48 50 49 47 47
70 71 71 70 72 73 64 50 47 53 55 57 62 64 63 64 63 59 61 69 71 66 58 55 58 61 58 54 53 54 56 58 61 64 68 70 70 70 70 71 73 73 73 74 75 75 74 73 73 73 72 70 68 66 64 62 60 60 62 66 64 57 49 46 45 46 49 50 47 44 44 45 45 43 42 42 43 44 46 48 49 50 49 46 47
62 59 57 60 65 67 63 56 57 63 65 66 69 69 66 64 62 61 64 67 65 64 62 62 67 72 67 60 55 53 56 63 69 74 77 77 74 74 76 76 73 72 74 75 75 74 73 72 72 71 69 68 68 68 65 61 59 61 66 67 59 48 44 45 45 45 45 44 44 44 45 44 43 42 41 41 44 46 47 48 48 48 47 46 48
55 47 50 59 65 67 68 68 68 70 71 70 69 67 65 63 63 62 63 63 63 62 62 65 73 76 71 63 57 54 60 73 80 81 83 81 77 77 79 78 74 72 73 74 74 74 72 70 70 69 68 68 69 66 62 60 61 64 64 58 48 42 40 40 42 46 47 45 44 44 44 43 42 41 41 44 45 46 45 46 46 47 46 45 47
54 48 55 64 65 67 73 75 73 72 70 67 65 64 64 63 64 65 64 63 63 61 60 67 77 77 69 63 59 57 65 76 79 77 78 79 77 77 79 78 76 76 76 75 75 76 74 72 71 69 68 69 67 62 60 63 65 65 59 48 39 38 38 38 41 46 47 47 47 45 42 41 41 41 43 44 43 43 45 46 47 48 46 45 47
61 60 65 68 69 73 76 73 71 71 70 69 71 72 71 69 69 69 68 66 64 62 65 73 78 72 65 64 63 60 64 72 76 75 77 80 80 78 78 79 79 80 78 77 76 76 74 72 70 68 66 65 63 62 64 67 66 60 51 41 36 39 43 42 41 44 47 49 47 40 37 41 45 44 43 43 42 43 46 47 48 48 47 46 47
67 68 70 70 71 73 71 68 69 69 67 66 65 65 68 74 76 73 71 70 69 67 72 80 81 72 64 66 67 63 62 70 75 73 73 76 76 73 72 76 79 78 78 78 77 75 73 70 69 68 65 62 63 68 71 68 60 50 42 37 36 38 40 41 44 48 48 42 33 30 36 45 47 43 42 43 43 44 46 47 48 49 48 47 47
70 69 69 67 65 65 65 67 68 62 56 56 59 59 64 73 76 74 73 76 75 71 71 77 81 77 70 67 65 59 59 68 75 73 71 73 74 73 73 75 76 76 76 76 73 71 70 68 68 70 68 65 67 73 72 64 54 44 37 35 37 40 45 49 49 44 33 20 16 25 39 46 45 43 45 46 44 44 48 49 49 48 47 47 46
69 67 67 65 66 70 72 69 62 56 55 61 68 70 70 73 76 76 75 74 75 74 71 70 73 76 75 74 71 68 69 76 79 76 73 73 74 73 72 73 74 75 74 72 68 68 70 70 69 71 72 72 74 73 68 59 49 35 25 22 26 33 42 44 37 24 12 8 11 19 28 36 44 48 48 46 46 48 51 50 47 47 48 47 45
70 69 70 71 73 76 75 65 58 61 68 72 72 71 72 73 76 78 77 73 74 77 76 72 71 71 73 77 79 78 79 81 78 74 71 72 73 74 74 73 72 71 68 66 64 65 67 71 72 71 72 75 76 73 66 57 46 33 22 16 15 17 21 21 18 11 7 8 11 10 12 26 44 52 51 49 50 51 52 49 46 46 47 46 43
75 74 74 73 71 71 70 67 64 66 71 74 73 71 72 74 73 74 75 75 75 75 73 71 71 71 70 70 71 69 68 68 68 68 68 66 66 70 74 73 70 65 60 59 60 62 66 71 74 73 74 76 76 74 68 57 45 39 36 28 18 12 10 10 9 9 7 8 8 5 10 31 53 59 53 51 52 53 54 52 47 44 47 47 43
73 71 70 69 69 70 73 77 76 73 72 74 73 70 70 71 70 69 70 70 69 66 63 61 61 61 61 60 60 59 58 58 59 62 64 61 61 67 74 73 69 63 56 51 55 62 69 74 75 75 76 77 76 74 68 57 46 43 41 29 13 8 9 8 8 8 8 7 7 5 14 40 63 63 54 53 55 53 53 52 48 46 48 46 41
70 69 69 68 67 67 70 74 76 74 72 72 71 67 66 66 64 60 59 57 56 55 55 53 51 51 50 49 48 50 52 54 55 58 59 59 62 70 74 72 68 65 59 55 58 64 69 73 77 77 76 77 77 73 66 57 50 46 37 21 8 7 10 8 8 8 6 6 7 5 12 37 61 63 55 55 56 50 46 49 50 48 47 44 41
65 64 64 63 62 64 66 67 67 67 68 68 66 63 62 60 56 51 50 49 48 48 48 48 48 47 46 46 46 48 51 53 56 57 58 59 63 71 75 72 68 66 64 62 64 65 64 69 77 79 76 76 76 71 63 57 51 42 26 12 7 10 9 7 9 9 4 5 9 6 9 35 63 68 61 60 55 42 37 46 52 49 45 43 41
Wind_Speed
32 30 31 32 32 32 31 33 34 32 29 27 24 23 22 21 19 18 17 15 13 14 17 19 19 17 15 14 15 16 18 16 13 13 15 15 15 15 14 13 13 13 14 14 14 13 13 14 14 14 13 12 13 14 14 11 10 10 11 12 12 11 12 13 14 16 16 15 15 15 14 16 16 16 18 20 21 20 20 20 21 21 23 24 24
32 31 31 32 33 33 31 32 34 32 29 28 27 27 26 26 25 23 21 20 20 23 27 29 29 26 22 20 19 19 20 18 15 14 15 16 16 16 14 14 14 14 15 15 14 14 14 15 15 13 13 13 14 15 13 10 10 10 12 13 13 12 13 15 16 18 17 17 17 16 15 16 17 16 16 18 19 20 21 22 22 22 21 22 22
31 31 31 32 33 34 33 33 34 33 31 31 31 31 30 30 29 27 26 27 29 31 34 36 35 32 28 26 23 22 22 20 17 16 16 16 17 16 15 14 14 14 14 14 14 14 15 15 14 13 13 13 14 15 12 11 12 13 14 14 14 13 14 15 17 18 18 19 19 18 18 19 19 19 18 19 19 19 21 22 23 23 22 22 22
31 32 32 31 31 34 35 34 35 35 35 35 35 35 35 34 33 32 33 34 36 36 37 39 41 38 33 30 28 25 23 22 21 20 18 16 17 17 17 16 16 16 16 16 15 15 16 15 14 14 14 14 14 14 13 12 14 15 15 15 15 14 14 17 18 18 20 22 22 19 20 22 23 21 20 21 20 20 21 21 22 23 24 23 21
32 32 32 32 31 33 35 35 36 37 36 36 37 38 38 36 36 38 40 40 39 39 37 39 43 41 37 33 31 29 26 24 23 23 20 17 17 17 17 17 17 17 17 17 15 15 16 16 15 14 14 15 14 14 15 14 15 15 16 16 16 16 17 19 19 18 20 23 24 23 22 22 22 22 22 23 24 22 22 22 22 24 24 23 21
34 33 32 33 34 35 35 37 38 39 36 37 40 42 40 38 39 42 43 41 41 40 38 39 42 42 39 35 31 30 28 25 25 24 21 18 18 17 16 17 18 17 17 16 16 17 17 16 16 15 15 15 15 16 16 15 15 16 17 18 19 19 19 19 18 18 19 21 24 25 23 21 22 25 25 25 25 24 23 24 24 24 24 23 22
36 35 35 37 38 36 36 38 40 40 39 42 44 44 42 42 43 45 45 42 42 41 36 33 37 40 40 38 34 32 31 27 26 25 22 21 20 17 16 17 18 18 17 16 16 17 16 15 15 16 15 15 16 17 17 17 18 20 20 20 21 20 19 18 18 18 19 21 24 26 24 23 25 28 27 25 24 23 23 24 25 25 24 23 23
37 36 37 40 40 38 38 39 40 42 42 45 46 46 45 46 46 46 45 43 43 43 35 28 30 34 37 39 37 34 32 30 27 25 21 21 21 18 18 19 19 19 18 17 17 17 15 15 16 16 16 16 18 19 18 19 22 22 21 20 20 20 20 21 21 20 21 23 25 26 26 26 27 27 26 24 24 23 23 23 25 25 24 24 24
37 38 41 42 39 38 39 39 40 44 46 46 48 49 48 48 47 46 45 44 46 48 41 31 28 29 30 35 38 35 33 32 30 25 21 21 21 20 20 21 20 19 18 18 18 16 15 16 17 17 17 18 20 20 19 20 23 23 22 21 22 24 26 25 24 24 25 26 27 27 28 28 26 24 23 23 24 25 25 25 26 26 26 27 27
37 39 42 42 38 37 39 41 43 47 48 47 48 50 48 47 47 46 45 45 46 50 47 37 31 28 27 32 39 38 35 33 32 29 24 21 21 21 23 23 21 19 17 16 16 16 16 17 17 18 20 20 19 19 20 22 24 23 23 23 24 28 29 26 25 27 27 27 28 28 29 28 26 23 22 23 24 25 25 25 26 27 28 29 30
36 37 38 38 37 40 44 46 46 46 46 44 45 47 45 44 46 46 46 47 47 50 49 41 35 32 31 33 37 39 37 34 33 33 27 21 20 21 23 24 22 20 18 16 15 16 18 19 20 21 22 21 20 20 22 24 25 25 24 23 24 26 27 26 27 28 28 28 29 29 29 30 28 25 24 24 24 25 25 26 27 29 29 29 30
35 37 40 40 42 45 48 49 47 44 42 40 40 41 41 41 43 43 45 47 47 49 49 44 39 37 38 38 37 38 37 35 34 33 27 22 19 21 23 24 24 23 20 18 17 18 19 20 21 22 23 22 23 24 24 25 25 25 24 24 24 24 25 27 29 28 27 28 30 30 31 32 30 27 25 24 24 26 27 28 29 30 30 30 33
33 36 41 44 46 47 48 47 45 42 39 37 37 38 38 39 39 41 44 47 48 49 49 46 42 40 41 40 38 36 33 33 33 32 27 23 21 22 25 26 25 24 23 21 19 19 20 20 22 25 25 24 24 24 24 25 25 25 26 27 26 22 21 24 28 28 28 29 31 32 31 31 29 27 26 25 26 28 28 29 30 32 33 35 38
34 38 41 42 43 43 43 42 39 38 36 34 35 36 37 37 37 39 43 46 49 50 49 46 44 43 43 41 38 34 28 28 30 30 28 26 23 23 26 28 28 26 24 21 20 21 22 22 24 25 24 22 23 24 25 26 26 27 28 27 22 19 18 21 25 27 26 26 28 29 28 27 25 24 25 27 29 31 32 34 36 37 39 39 38
36 39 38 36 37 37 36 35 32 30 29 28 30 32 34 34 35 37 42 46 50 50 49 46 44 43 42 39 36 31 25 25 28 29 29 27 24 23 25 28 29 27 24 21 20 22 24 24 23 22 21 22 26 28 28 27 28 29 28 23 19 19 20 20 22 24 23 23 25 25 23 22 22 25 29 31 34 36 37 37 35 32 31 31 30
34 36 34 34 35 34 32 30 28 26 24 24 26 27 28 30 31 34 39 44 46 47 47 45 43 42 40 37 34 28 24 26 29 29 29 26 23 24 26 27 29 27 24 23 22 23 26 24 22 24 24 25 28 29 29 30 31 31 26 20 19 20 20 20 21 23 23 23 25 26 27 28 30 32 33 33 33 33 31 28 25 22 23 26 26
34 34 33 33 32 31 31 30 27 24 23 23 24 23 23 25 27 29 34 39 38 37 38 38 37 38 36 33 32 27 23 26 28 27 27 25 24 25 26 26 27 27 26 26 25 24 25 25 25 28 28 25 25 28 29 28 26 23 20 18 19 19 19 20 21 22 22 23 24 26 29 30 31 31 31 28 25 22 21 22 21 20 22 26 27
31 28 27 29 29 28 28 26 24 23 24 24 23 22 23 24 23 24 28 32 29 25 23 26 30 32 29 26 26 24 22 25 27 26 26 25 24 24 24 24 25 25 26 27 25 23 25 26 28 30 29 25 24 24 23 21 19 17 17 18 18 18 18 19 19 19 21 22 23 24 26 29 31 31 28 23 17 14 17 22 23 21 21 24 26
29 26 26 27 25 22 22 22 23 25 25 25 23 23 23 22 21 22 24 25 24 20 19 22 26 25 21 19 21 20 19 22 25 25 23 22 22 22 22 21 22 23 23 23 22 22 24 25 25 25 23 20 19 18 17 18 18 17 17 16 17 19 20 21 21 22 23 24 25 26 29 30 29 26 21 18 17 17 20 24 24 22 23 24 26
29 27 25 22 20 20 20 22 25 26 26 25 23 22 21 18 17 19 19 17 17 18 18 19 18 16 16 17 17 15 15 19 23 21 19 18 18 19 20 20 20 20 21 21 21 21 21 20 18 17 16 16 15 15 17 18 18 17 17 16 17 19 21 22 23 24 25 26 27 28 27 23 19 16 16 17 19 20 21 23 23 22 24 25 26
24 24 23 21 22 22 21 21 25 28 27 24 21 19 18 18 17 17 16 14 15 15 15 13 12 13 15 15 13 12 11 14 18 18 16 16 17 18 19 18 18 19 21 22 21 19 16 15 13 12 13 14 14 16 17 18 17 17 18 17 18 19 21 22 23 24 25 24 23 21 19 17 16 16 16 18 19 20 20 20 19 20 22 24 25
24 25 25 26 26 23 21 24 28 29 26 23 21 20 20 20 19 17 14 15 16 15 13 12 12 14 14 12 12 11 10 11 15 16 15 15 16 17 18 19 20 21 21 21 19 16 13 12 12 11 12 14 15 17 17 17 17 16 16 17 19 20 21 22 23 24 22 18 16 15 15 15 15 16 17 19 19 18 17 18 19 22 23 24 25
28 27 28 28 24 20 22 29 31 29 26 25 24 22 20 20 20 18 16 16 16 15 14 14 14 14 13 12 10 10 12 14 15 14 13 13 15 18 19 21 21 20 18 17 15 13 12 12 12 11 13 15 16 17 17 16 16 16 16 18 19 19 20 21 20 18 15 13 14 15 15 15 16 17 18 18 17 17 19 22 23 23 23 23 23
28 27 27 26 21 19 24 30 29 26 25 23 21 21 21 21 21 19 18 16 14 13 14 14 14 14 13 13 12 12 15 16 13 13 13 14 16 17 18 18 18 17 15 14 12 11 12 12 12 13 14 16 16 16 16 17 16 16 16 16 17 17 18 17 14 12 13 15 15 16 16 17 17 17 17 17 18 21 23 23 21 20 20 21 21
27 27 26 25 22 22 27 28 25 23 22 21 22 24 25 24 22 21 19 16 13 13 14 13 13 13 13 13 13 14 16 14 12 13 15 15 17 17 17 17 16 15 14 13 11 10 10 11 12 14 15 16 16 16 17 18 17 16 14 14 14 14 12 12 12 12 14 14 14 15 16 16 15 16 17 19 21 22 21 19 19 19 20 20 21
25 24 21 21 22 24 26 25 23 22 22 22 25 27 25 22 21 20 18 14 13 14 14 13 14 13 13 13 13 13 13 13 12 13 15 16 17 17 16 16 14 14 15 12 9 9 11 12 13 14 14 15 15 16 16 15 15 15 13 12 12 10 8 9 12 13 14 13 14 14 14 14 16 17 19 20 19 18 17 17 19 20 19 19 20
23 20 17 18 20 21 23 22 21 20 20 19 21 22 21 18 18 17 15 14 14 15 14 14 14 13 13 13 12 12 12 13 13 13 14 15 16 14 14 15 14 14 13 11 9 10 11 12 13 14 15 15 14 13 12 12 13 15 13 12 12 10 9 12 13 13 13 13 13 13 14 16 17 17 17 16 16 16 16 17 18 19 18 19 20
21 20 19 20 20 20 20 20 19 18 18 18 19 20 19 17 15 15 15 14 14 15 14 14 14 13 13 13 12 12 13 13 13 13 14 14 14 14 14 14 13 12 10 10 11 12 12 13 15 15 14 11 9 9 11 11 11 11 11 10 10 11 14 16 15 14 14 12 12 14 16 17 16 15 15 15 15 15 16 17 18 19 18 18 19
21 21 21 21 21 20 18 18 19 19 20 22 23 22 21 20 17 16 17 17 16 15 14 13 13 13 12 12 13 14 14 13 13 13 13 13 13 14 14 14 12 11 11 12 12 11 11 13 15 13 9 7 7 10 12 11 10 10 11 11 12 13 14 15 14 14 12 12 14 16 16 15 14 14 14 15 15 15 16 17 18 18 18 17 18
21 20 20 21 21 20 18 19 20 22 23 25 26 25 23 23 21 18 18 18 17 15 13 13 14 13 11 12 14 14 12 12 13 13 13 13 13 13 14 13 12 13 13 13 11 9 8 10 11 10 9 10 11 12 12 12 12 12 13 14 14 14 14 14 13 12 11 13 16 16 14 13 14 14 14 15 16 16 16 17 17 17 17 17 18
21 20 19 20 20 19 20 21 21 22 23 24 26 26 24 22 20 17 15 14 14 13 12 13 15 15 13 12 13 12 11 12 13 13 12 12 12 13 14 16 17 16 14 12 11 9 9 10 11 10 10 10 12 12 12 12 12 12 13 14 14 14 14 12 11 13 15 17 15 13 12 13 13 13 14 15 16 16 16 16 16 16 16 17 18
21 20 21 22 22 22 23 22 21 22 22 21 23 26 24 21 18 15 12 11 11 11 10 12 16 18 16 14 12 11 12 13 12 11 11 12 13 13 15 17 17 15 14 13 11 10 9 11 11 10 10 11 13 13 12 11 12 12 13 14 15 14 11 11 15 19 19 16 12 11 12 12 12 13 15 15 16 16 16 16 16 16 17 17 18
21 22 23 24 24 24 24 22 21 21 21 19 21 23 21 18 15 13 10 9 8 8 9 12 16 18 17 15 13 12 12 13 13 13 12 13 15 16 17 18 17 15 15 13 10 7 9 12 13 11 11 12 13 12 11 11 12 13 13 13 14 13 11 13 18 19 15 11 10 11 11 11 12 13 14 14 15 15 16 16 16 16 17 18 18
23 24 24 24 23 23 23 22 21 20 19 18 18 18 17 14 12 12 12 11 10 10 12 14 16 17 15 15 15 15 14 14 14 14 14 15 17 18 18 18 17 16 15 13 11 10 12 14 13 12 12 13 12 12 11 12 13 14 13 13 13 13 12 13 15 14 11 10 11 11 11 11 12 13 14 14 15 15 16 16 16 16 17 18 19
23 23 23 23 23 22 21 20 19 18 18 18 17 16 16 14 11 11 12 12 11 12 14 16 17 16 14 13 14 14 13 13 13 12 13 15 17 18 19 19 18 17 15 13 13 13 13 13 12 11 11 12 12 11 11 12 13 14 13 13 14 13 13 13 12 11 10 11 11 10 11 12 12 12 13 14 15 15 16 16 16 17 18 18 19
22 23 23 22 20 19 18 18 17 17 17 17 16 15 13 12 11 11 11 10 11 12 15 17 17 15 14 13 12 10 9 9 9 9 11 13 15 17 18 17 16 15 13 9 7 7 8 10 11 11 10 10 11 12 12 13 13 12 11 13 15 15 14 12 11 11 12 11 10 10 11 11 12 12 13 14 15 15 15 16 16 17 17 18 19
21 21 21 19 18 17 18 18 17 18 17 16 14 13 10 8 9 10 10 10 11 11 11 13 15 14 12 11 9 8 7 8 8 9 11 12 14 15 15 13 11 10 8 7 7 8 8 9 10 10 10 10 11 11 12 13 14 12 11 15 17 16 14 13 12 13 13 11 10 10 10 11 11 12 13 14 15 15 15 16 17 17 17 18 19
21 21 20 19 19 19 20 19 17 16 15 13 11 9 8 7 8 9 9 11 12 11 10 12 13 11 10 9 8 7 8 9 10 11 12 12 12 12 11 9 8 9 9 9 10 10 11 10 10 10 10 10 10 11 12 14 14 12 12 14 16 15 14 13 12 11 11 9 9 9 10 10 11 11 12 14 14 15 16 16 16 17 18 18 18
22 22 22 20 18 17 18 18 16 13 11 10 9 9 9 9 9 10 11 12 13 12 11 11 10 10 9 8 8 8 10 12 13 13 13 12 11 10 9 7 8 9 10 10 10 10 11 10 10 10 10 10 11 12 13 13 13 12 13 15 15 14 13 11 9 8 8 9 9 9 10 10 11 12 12 13 14 15 16 16 16 17 18 18 18
20 20 21 19 17 16 17 17 15 12 11 10 10 10 11 11 11 11 11 11 11 11 10 9 10 12 11 8 7 8 11 12 12 11 10 9 9 9 9 9 9 10 10 10 10 10 10 10 10 10 11 11 11 11 11 11 12 13 14 14 13 11 10 10 9 9 9 9 9 9 9 10 11 12 12 13 14 15 16 16 16 17 17 17 18
18 20 20 18 17 17 16 15 14 12 12 12 12 12 12 12 11 11 11 10 10 10 9 8 10 11 10 8 8 9 9 9 10 10 9 8 8 9 9 9 10 10 11 10 10 10 10 11 11 11 11 11 11 11 11 12 13 14 13 12 11 10 9 9 9 9 9 9 9 9 9 10 11 12 12 13 14 15 15 15 16 16 16 16 17
18 20 20 17 16 15 15 15 15 15 14 13 12 11 11 11 10 9 9 8 8 9 9 9 10 9 9 10 10 9 9 10 10 10 11 11 10 11 11 11 11 11 11 11 10 11 11 11 11 10 11 12 12 13 13 13 13 12 10 10 10 9 9 8 8 8 9 9 9 9 10 11 11 12 12 13 14 14 15 15 15 16 16 16 16
17 18 17 16 15 14 14 14 15 15 13 12 11 11 11 10 9 8 8 7 7 7 7 9 10 11 11 11 10 10 10 10 9 9 11 12 12 11 12 12 12 11 10 10 10 11 12 12 12 13 12 12 13 13 13 12 11 10 10 10 9 9 9 9 8 8 8 8 9 10 11 11 10 11 11 12 13 14 14 15 15 15 16 16 16
16 16 15 14 14 14 13 13 13 12 12 11 12 12 12 11 9 8 8 8 8 8 8 9 11 12 11 11 10 11 12 10 9 9 11 12 12 12 12 11 11 11 11 10 10 12 13 13 14 13 12 13 14 15 14 12 11 10 10 9 9 9 9 8 8 8 9 10 11 11 10 9 10 10 11 11 13 14 14 14 14 15 15 15 16
14 14 14 13 13 12 12 12 11 11 11 11 11 12 12 10 9 9 9 9 10 10 10 10 10 10 10 10 10 12 12 12 10 10 11 12 13 12 12 11 11 12 12 11 11 12 13 12 12 12 12 14 15 14 13 13 13 12 11 10 10 9 8 8 10 11 12 13 12 10 9 9 9 10 10 11 12 13 13 13 14 14 15 15 15
13 13 12 11 11 11 11 11 11 10 9 9 9 10 10 9 9 10 10 10 10 9 9 9 9 9 9 9 9 10 11 11 11 10 11 12 12 12 12 12 11 11 10 9 10 12 12 11 11 11 11 11 12 12 11 11 12 12 13 14 13 12 11 12 13 14 14 13 13 11 10 9 9 9 10 11 12 12 13 13 14 14 14 14 15
11 10 9 9 9 9 10 10 9 8 8 9 9 9 9 10 10 10 10 10 10 9 8 8 8 9 9 9 9 9 9 9 9 9 10 11 11 12 12 12 11 10 9 10 10 11 12 12 11 10 10 10 11 12 12 10 9 10 11 13 14 16 16 15 15 14 14 13 13 12 11 9 8 9 10 10 11 11 12 13 13 13 13 14 14
8 8 8 8 8 8 8 8 8 8 8 9 9 9 9 9 9 9 9 9 9 9 8 8 8 8 8 8 8 8 9 9 9 9 10 10 11 12 12 13 12 11 10 11 12 12 12 12 11 10 11 12 12 12 11 10 9 9 9 12 15 16 15 14 14 15 14 13 12 12 10 8 8 9 9 10 10 11 11 12 12 13 13 13 13
7 8 8 8 8 8 7 8 9 8 8 9 9 9 9 9 9 9 9 8 8 8 7 8 8 7 7 7 8 9 9 10 10 11 11 11 12 12 13 13 14 13 12 13 14 14 13 12 11 10 11 12 12 11 11 10 9 9 11 15 16 15 13 13 14 14 13 12 12 11 9 6 7 9 9 9 10 10 10 11 12 12 12 12 12
6 7 7 7 8 8 8 8 8 8 9 9 9 9 9 9 9 9 8 8 8 9 9 8 8 8 9 9 9 10 10 11 11 12 12 12 12 13 13 14 14 14 13 13 14 14 13 12 12 11 11 11 11 11 10 9 9 11 15 17 15 13 13 14 14 13 12 12 11 10 8 6 6 8 8 7 9 10 9 9 11 11 12 12 12
4 4 5 6 6 7 8 8 8 8 9 9 9 9 9 9 8 9 9 9 9 9 9 8 7 8 9 10 10 11 12 12 12 13 13 13 14 14 14 14 14 15 14 13 13 14 14 13 13 12 11 11 12 11 9 10 12 15 16 15 13 13 14 14 13 12 12 11 10 9 7 4 5 7 7 7 8 9 8 8 10 11 11 11 11
Wind_Direction
201 202 203 204 206 206 207 213 216 215 211 206 203 200 200 199 194 196 205 209 220 241 252 254 249 239 229 226 226 225 227 234 238 231 232 237 236 236 235 234 236 239 242 243 243 246 248 250 255 258 260 261 261 266 268 268 276 280 278 283 285 282 287 291 289 294 302 304 301 298 292 288 287 284 285 291 298 298 293 287 283 284 288 291 294
202 203 203 203 207 207 206 210 214 213 210 209 208 206 209 210 207 207 212 218 230 243 248 249 247 241 236 234 234 229 229 236 240 233 233 236 237 239 241 241 242 241 242 245 245 245 244 244 249 253 257 260 261 266 268 262 267 271 270 279 284 280 285 292 292 292 295 300 303 300 295 292 288 283 283 285 288 292 291 287 286 284 281 282 284
203 206 205 204 207 208 206 208 210 209 207 208 209 211 214 215 214 216 222 229 239 245 248 250 249 245 242 241 238 231 230 235 238 236 237 237 236 238 238 239 242 243 244 243 242 244 245 245 248 250 252 255 259 267 267 255 256 263 266 270 274 277 282 285 287 289 290 294 299 298 298 301 297 288 284 285 285 285 286 287 287 285 286 287 282
202 206 207 207 208 208 208 207 207 207 207 208 211 212 215 217 217 220 227 236 245 249 251 253 252 248 246 246 242 237 234 236 239 242 241 236 237 240 239 239 239 241 245 243 239 241 245 247 249 249 251 253 256 261 259 254 261 271 278 277 272 277 284 281 281 284 285 290 295 296 300 305 304 299 294 291 289 288 288 289 286 285 290 292 285
199 202 205 207 208 209 208 204 204 208 206 205 211 215 217 218 218 222 230 238 245 248 252 256 254 250 248 248 247 244 242 240 243 248 244 235 238 242 242 243 244 246 251 247 239 238 241 245 249 251 254 256 257 258 257 260 268 275 285 285 276 281 291 290 288 288 287 288 289 292 297 300 299 301 302 299 295 291 290 290 288 287 289 288 284
199 199 200 205 208 209 208 204 207 213 206 200 209 217 218 216 220 228 235 240 244 246 251 257 257 253 249 249 250 248 245 242 243 249 243 232 237 243 243 243 245 249 253 248 241 241 242 246 251 252 252 256 260 263 264 268 271 272 279 281 278 284 294 294 294 296 297 297 296 296 296 294 296 302 304 303 298 293 293 294 295 295 294 293 291
202 201 201 208 209 208 210 210 214 218 210 204 212 219 219 219 225 235 239 241 242 243 247 254 258 256 252 251 253 253 250 245 243 245 240 231 235 242 243 242 242 246 250 246 242 245 249 254 258 259 261 266 266 267 269 271 271 273 277 278 279 287 294 295 297 297 297 301 304 301 293 290 296 302 303 302 297 292 293 296 298 300 300 296 292
203 200 203 213 213 209 210 211 213 215 211 211 217 222 223 224 230 237 240 242 242 240 242 249 255 257 255 254 253 253 251 247 242 240 237 232 235 240 243 243 243 247 250 246 243 243 247 251 254 257 263 266 264 265 267 267 271 278 283 281 281 285 289 292 294 292 293 298 302 298 292 289 293 299 302 300 295 293 294 294 295 297 295 291 289
202 199 204 212 213 212 212 208 209 212 213 217 222 226 228 230 233 236 240 243 243 242 242 244 248 255 259 257 253 250 250 248 243 241 237 233 235 239 242 245 248 251 253 251 247 244 243 248 253 256 257 258 260 261 262 265 272 280 281 279 281 284 286 288 287 287 291 296 297 294 292 290 291 296 299 296 292 292 294 296 295 294 293 293 294
199 200 206 212 214 214 213 209 209 212 216 221 227 230 230 232 234 236 239 243 243 244 243 240 242 251 258 257 254 252 251 250 247 246 242 238 240 242 245 247 249 250 253 253 250 248 246 247 251 255 259 265 271 270 266 267 272 277 276 277 281 283 284 283 280 280 286 291 292 291 289 287 288 290 291 290 291 292 293 295 295 295 296 297 298
197 199 203 207 209 208 207 209 213 215 219 223 228 231 231 233 235 237 241 244 242 242 242 239 238 245 250 252 254 254 254 252 252 251 249 244 243 245 247 248 246 245 246 247 249 251 250 248 250 257 263 271 277 278 277 277 279 280 278 277 280 280 277 272 268 272 281 287 287 285 283 283 285 286 286 288 290 290 292 294 295 296 297 297 297
199 201 202 203 205 206 206 209 215 220 224 227 230 232 231 232 235 237 242 244 240 240 242 240 239 243 246 249 253 254 255 255 254 252 248 245 245 246 246 246 245 243 241 241 244 247 250 254 258 263 267 272 278 283 287 288 288 286 284 284 286 284 276 266 263 270 279 283 281 280 280 282 284 286 287 288 288 290 292 295 296 295 295 295 295
193 196 199 201 205 206 206 211 217 224 230 233 233 231 229 230 234 237 239 239 238 239 241 241 240 242 245 248 250 252 253 254 255 251 245 244 246 245 244 244 244 245 245 243 243 247 252 258 260 263 266 271 278 284 289 290 289 290 292 294 293 289 280 271 268 273 278 278 277 278 279 279 280 283 283 284 289 292 294 294 294 292 290 291 291
185 193 197 200 205 208 211 218 224 227 230 232 231 229 228 230 233 235 236 236 236 238 239 239 240 243 245 246 248 249 247 246 251 251 246 245 246 245 244 245 244 245 245 245 248 253 257 260 262 265 269 273 278 285 289 290 290 292 295 294 291 289 287 278 271 272 275 275 275 277 276 277 281 282 280 283 290 293 291 291 291 289 288 288 287
184 196 200 200 205 210 214 218 222 224 226 228 230 230 230 231 232 234 235 235 235 237 237 238 240 242 243 245 248 249 242 237 246 253 251 250 248 244 243 243 242 243 246 249 254 257 258 259 264 270 275 280 285 288 288 289 291 293 292 288 284 289 291 283 273 273 277 279 279 278 277 279 282 281 281 284 288 288 289 289 289 288 288 288 289
183 196 201 202 205 207 209 212 215 216 217 221 225 228 228 229 232 234 234 234 235 237 238 238 240 243 245 247 250 251 245 243 250 257 256 251 244 241 242 242 241 243 246 250 255 257 259 264 273 283 286 285 286 287 287 290 292 291 289 286 285 287 287 281 274 273 275 277 277 275 275 276 277 279 283 286 285 285 287 287 287 287 287 289 289
182 192 198 201 203 205 207 208 208 205 205 209 212 214 216 220 224 230 234 234 233 236 238 238 241 246 249 253 255 254 246 246 253 259 256 247 239 240 243 242 243 245 247 251 256 262 268 273 281 287 286 281 282 286 289 292 293 290 288 287 282 279 278 278 280 281 281 280 278 276 274 276 280 286 289 289 288 289 288 290 296 295 287 287 289
181 185 188 192 197 200 198 195 192 191 193 194 194 196 200 206 211 218 227 231 229 228 232 236 242 249 252 253 255 250 241 243 252 258 255 247 239 241 245 246 248 249 248 251 258 268 275 278 279 281 280 279 282 285 287 290 292 290 287 283 279 277 279 282 284 284 284 283 281 280 279 282 288 292 292 292 296 300 294 295 301 298 288 287 290
179 179 183 188 189 185 178 175 178 183 184 182 184 189 192 196 203 208 215 222 224 223 227 234 241 246 247 243 244 242 236 241 251 253 250 245 241 242 244 244 246 250 252 256 263 269 272 274 275 277 279 279 280 281 285 290 292 290 284 279 278 280 280 278 276 276 278 279 279 281 283 286 288 290 290 293 303 307 302 300 300 295 291 291 290
178 176 178 177 173 170 171 174 176 177 177 179 183 188 189 190 196 199 200 206 212 215 220 227 231 233 235 238 241 239 232 236 244 245 241 240 236 233 237 242 247 251 254 259 264 265 265 266 272 279 282 279 277 281 287 290 290 287 280 274 275 277 277 277 278 280 282 282 282 286 289 291 291 289 289 292 297 300 298 297 295 290 289 290 289
169 167 166 164 165 169 172 174 175 175 176 178 180 183 186 186 186 185 183 187 196 206 213 218 222 225 231 235 236 236 233 234 239 241 240 235 229 228 236 245 247 244 246 253 259 261 260 263 269 276 278 279 283 287 290 291 290 284 277 274 277 280 283 285 285 286 287 288 291 296 296 295 292 290 291 291 289 288 287 286 286 284 285 288 289
160 161 164 164 166 168 171 174 176 176 175 176 178 181 185 187 185 178 176 182 192 200 204 207 216 221 223 225 226 230 236 236 235 239 241 233 226 230 237 238 237 238 244 253 258 256 252 256 262 271 279 285 290 292 293 293 290 286 283 284 285 285 287 288 288 290 292 292 294 293 289 290 293 292 291 290 288 287 285 281 281 282 284 285 285
162 163 165 166 166 169 175 177 176 175 175 176 180 182 185 189 187 178 175 186 195 197 196 200 210 216 218 220 217 216 230 239 235 231 229 225 229 239 239 235 238 245 250 253 251 241 232 239 258 275 283 289 293 295 297 297 294 293 292 288 287 288 288 289 292 301 305 298 290 289 291 298 300 294 291 290 288 285 284 285 289 291 291 289 287
163 163 167 169 167 169 174 175 174 175 176 177 181 185 187 190 189 182 181 188 191 190 192 199 207 210 212 214 210 211 226 236 228 218 224 234 241 242 236 232 238 245 246 244 241 234 234 249 272 285 287 291 297 298 299 299 297 296 293 289 289 291 294 296 301 307 301 289 286 291 294 295 294 291 290 289 287 287 291 297 302 302 297 295 293
166 170 174 174 169 168 170 171 171 174 177 180 188 194 195 194 191 188 187 188 186 190 197 200 202 203 205 208 209 215 227 231 221 219 228 236 237 232 227 232 239 238 232 232 236 243 254 265 275 281 287 293 297 299 301 301 299 294 288 288 294 297 302 309 306 293 286 285 286 290 292 291 291 290 289 289 291 296 303 306 306 303 301 300 299
173 176 177 173 169 167 166 166 168 173 179 186 195 199 197 194 194 193 191 190 192 196 198 196 197 200 203 206 206 210 219 224 224 228 230 227 226 225 225 231 233 223 220 228 241 257 269 271 270 278 288 292 297 304 309 310 311 306 297 298 313 324 320 304 292 286 288 291 289 290 291 292 292 291 292 295 299 304 306 305 304 306 306 306 304
176 176 171 168 168 166 163 163 166 170 173 180 192 197 193 188 192 195 193 192 196 197 195 195 198 202 206 209 208 206 211 214 218 227 228 222 220 224 227 228 223 215 220 234 245 254 267 276 281 289 293 294 302 315 320 322 327 329 324 321 328 331 308 288 286 292 299 296 291 292 295 294 295 297 299 302 303 303 303 304 305 307 309 308 308
170 170 168 169 172 170 164 161 162 164 167 174 184 190 189 187 190 194 192 193 195 196 197 201 205 208 212 214 212 211 213 213 210 212 218 222 224 227 225 220 215 213 222 238 251 263 281 293 299 302 298 292 301 316 318 316 316 320 324 319 308 299 294 293 297 304 306 301 294 295 297 298 299 301 301 302 302 303 304 306 306 307 310 311 309
160 164 166 170 174 172 165 161 161 165 173 180 184 186 187 187 189 191 192 195 197 198 202 207 209 212 218 220 214 211 211 211 208 211 223 234 235 232 228 222 217 216 218 227 245 270 291 299 303 303 291 273 277 292 296 293 288 290 300 302 297 294 295 295 295 294 293 291 294 298 299 300 300 301 303 304 305 305 306 307 308 308 308 308 307
158 162 164 167 170 168 163 163 167 172 180 186 187 187 188 189 190 192 194 196 198 201 207 211 208 209 215 214 209 209 212 217 223 230 239 243 239 236 233 224 214 213 221 234 251 265 272 276 279 276 267 265 274 284 285 282 284 287 290 295 297 296 293 291 287 282 282 290 298 300 298 298 300 303 306 307 306 307 308 309 309 308 305 305 306
158 158 160 164 166 163 162 165 169 174 181 187 189 190 191 191 193 198 201 203 206 213 220 215 204 204 210 207 204 211 220 225 231 237 239 237 232 223 214 209 210 219 234 253 268 266 260 265 267 264 264 270 279 286 284 282 285 286 287 292 295 293 294 292 278 274 285 296 300 298 295 299 303 305 307 307 307 309 310 310 310 309 306 305 306
158 159 163 164 162 161 165 169 171 175 179 184 188 190 192 194 199 207 213 215 218 225 227 212 199 200 209 211 210 218 223 223 228 233 231 229 225 217 213 216 226 237 247 257 265 265 265 267 263 259 266 276 280 282 279 279 282 283 286 292 292 291 293 283 273 281 295 301 299 296 298 301 304 305 307 309 309 309 310 311 311 311 309 309 308
163 164 165 162 160 162 167 170 172 176 179 180 182 186 191 197 202 204 202 203 209 214 215 205 196 197 208 214 217 223 225 225 228 230 229 231 230 227 227 233 240 248 254 257 258 258 259 259 257 258 271 277 277 274 273 275 277 277 282 288 287 286 288 282 285 297 308 304 294 298 302 302 305 307 309 310 310 310 311 311 312 313 313 313 313
163 163 161 159 160 164 168 169 171 174 176 174 174 177 180 184 191 192 188 188 193 199 203 201 197 199 209 218 223 228 232 232 233 233 233 234 232 231 235 242 247 249 252 256 258 260 263 264 266 269 271 269 269 271 274 275 275 279 289 292 286 285 288 289 294 304 306 296 296 301 301 301 306 308 310 311 312 312 312 312 313 316 316 316 316
163 162 161 161 162 164 165 167 170 172 171 168 166 167 169 172 180 189 191 191 193 199 202 201 201 205 214 219 223 227 231 234 237 239 238 236 235 236 241 245 248 253 260 268 273 272 267 262 268 274 268 261 262 266 269 273 276 283 290 291 285 286 291 293 295 295 290 291 298 298 297 303 308 309 310 312 313 313 314 315 315 316 317 318 318
162 162 162 161 161 160 160 162 164 165 164 162 161 162 165 169 177 186 189 186 187 200 209 208 206 207 208 210 215 220 227 235 240 240 240 239 240 242 245 246 251 263 273 275 270 265 252 246 257 266 260 254 259 262 264 272 276 276 278 280 280 284 290 291 286 281 282 289 296 296 299 305 308 309 311 313 314 315 316 316 317 317 317 319 318
160 160 160 158 155 155 154 156 159 160 159 158 158 162 167 174 184 194 199 191 189 198 201 194 193 197 197 200 213 225 237 248 249 244 245 245 244 246 247 245 245 254 257 241 234 243 250 249 252 255 252 254 260 261 264 272 276 276 282 283 279 280 284 281 273 273 281 290 293 295 300 304 306 310 313 314 315 318 318 318 319 318 319 320 320
157 156 156 155 157 159 160 160 161 164 165 164 164 171 179 182 185 192 192 183 182 187 182 173 179 194 201 207 224 239 247 254 253 250 251 251 250 253 254 247 237 236 238 237 239 243 248 251 252 252 254 256 259 263 271 277 277 278 281 279 276 278 286 287 282 284 291 295 292 293 299 304 306 311 314 315 317 319 319 320 320 320 321 323 323
157 158 159 157 156 160 165 167 165 165 169 174 177 180 182 181 181 183 181 174 178 190 193 186 190 204 212 217 227 236 245 250 250 249 249 248 249 251 247 237 235 237 236 236 239 242 246 249 250 251 254 257 262 269 275 277 277 278 277 274 272 274 278 280 279 281 284 286 288 292 298 303 307 311 314 316 318 320 320 322 321 320 321 323 324
160 164 163 158 152 154 162 167 167 166 167 170 171 173 177 180 181 184 184 182 184 192 197 196 197 203 210 218 225 233 241 242 237 236 241 245 245 240 230 225 233 235 230 229 235 241 246 249 248 249 254 260 266 271 276 279 280 278 273 270 270 268 263 263 267 271 276 280 287 294 299 304 307 311 314 315 317 320 322 321 321 322 322 322 324
161 167 166 162 159 157 155 156 159 160 159 161 164 168 172 174 177 182 187 191 192 194 200 204 202 202 210 222 229 232 229 216 205 208 216 221 226 226 223 224 230 229 227 230 235 238 243 247 249 252 256 257 262 270 277 277 273 268 265 264 263 260 258 262 265 267 272 279 287 293 297 301 307 312 315 316 318 322 322 321 321 324 324 324 326
163 168 165 162 158 153 149 151 156 156 155 157 161 164 168 173 178 182 187 194 201 207 211 212 210 214 225 232 233 227 214 203 204 211 213 212 214 218 220 223 225 223 224 231 237 239 242 246 249 253 256 259 266 274 276 270 263 260 260 260 257 255 256 260 264 268 274 282 288 290 295 304 313 317 318 317 318 321 322 322 324 325 326 327 329
157 158 156 154 152 150 152 158 161 158 155 158 163 167 170 175 180 184 190 199 209 213 210 209 217 230 238 237 236 232 223 214 215 219 218 214 213 217 223 227 229 229 230 233 237 241 246 250 253 254 258 264 268 268 265 259 255 253 253 251 250 251 252 255 263 271 276 278 282 289 299 309 316 317 316 317 319 321 322 323 324 326 328 329 331
149 151 151 151 152 152 152 153 154 158 166 177 184 186 184 180 183 193 200 202 203 202 199 202 218 234 239 235 235 240 238 229 220 222 224 221 219 225 230 229 228 231 233 234 241 248 251 252 252 254 258 262 259 252 247 247 246 247 247 245 245 249 252 256 260 263 265 269 279 292 305 312 313 314 316 317 318 321 324 324 325 327 329 330 332
155 155 153 151 152 154 154 158 167 179 189 194 196 196 194 191 194 201 203 199 198 202 205 208 218 233 241 240 240 242 239 232 224 224 228 226 224 228 229 224 225 233 236 238 248 254 252 251 254 256 257 255 249 245 248 253 250 243 236 232 233 240 246 248 249 253 262 273 283 292 301 306 309 314 316 316 319 323 324 325 326 327 329 331 333
157 154 152 153 155 156 162 173 184 190 190 187 189 194 198 199 201 204 207 207 207 210 216 218 219 223 227 231 231 228 226 225 225 227 229 229 229 228 225 223 229 240 245 247 251 251 248 249 253 254 250 244 239 240 250 258 256 249 241 233 231 232 233 239 249 259 268 277 285 291 294 300 309 315 314 316 321 322 323 325 327 328 328 330 332
153 152 155 160 164 167 174 184 191 192 190 191 198 204 206 207 206 207 211 214 212 209 210 214 214 214 216 217 218 220 223 226 231 235 236 236 235 230 226 226 232 239 247 250 249 248 250 252 250 246 242 236 236 244 252 255 254 255 251 243 239 239 240 246 257 266 271 278 286 292 295 300 310 313 312 315 319 320 322 326 328 327 328 330 332
161 165 165 168 176 183 191 200 211 216 210 205 206 207 206 205 206 204 205 206 205 203 205 211 213 217 221 221 224 232 236 240 245 245 244 245 244 235 227 228 233 237 246 254 253 250 249 249 246 242 239 234 236 247 254 248 239 240 244 245 245 247 249 254 261 267 274 282 289 292 295 302 309 308 308 312 318 320 323 326 326 328 330 330 331
177 183 187 193 202 207 208 209 213 215 209 204 206 207 205 205 207 204 201 201 201 203 210 218 222 226 231 233 238 243 245 247 251 251 249 250 248 236 227 229 233 236 243 253 255 249 246 244 243 242 239 237 239 245 248 243 237 234 240 246 251 254 256 259 263 268 277 285 288 287 287 292 299 302 307 315 318 319 320 324 326 329 331 330 332
188 200 206 212 215 215 211 208 207 205 202 204 207 206 203 203 205 203 203 209 214 214 216 221 226 232 238 242 247 249 250 251 253 252 252 252 248 236 228 231 236 238 241 245 245 244 246 247 246 242 239 237 238 239 239 237 233 233 240 249 257 261 260 261 265 272 278 286 290 284 273 270 289 300 305 312 315 314 316 324 329 330 330 331 333
188 202 203 205 207 207 204 205 209 208 205 204 205 204 201 203 207 210 213 218 219 217 218 223 232 240 247 252 253 252 252 253 252 251 252 251 246 236 229 229 233 238 240 239 239 243 247 246 242 240 239 236 234 234 233 231 232 238 248 258 264 263 260 263 270 276 281 287 288 277 259 257 293 302 301 304 308 308 313 326 332 331 330 330 333